SM4TUV Weather Reports


Display with metric or nautical units.
time (UTC)temp
F
wind
direction
speed
MPH
gust
MPH
rain 1hr
in
rain 24hr
in
rain mn
in
humidity
%
barometer
mb
20260831174532 64 190 2.0 4.0 0.00 0.01 0.00 76 971.8
20260831173632 64 184 3.0 4.0 0.00 0.01 0.00 75 971.8
20260831172732 65 199 2.0 4.0 0.00 0.01 0.00 74 971.7
20260831171832 65 201 3.0 4.0 0.00 0.01 0.00 74 971.7
20260831170932 65 294 2.0 4.0 0.00 0.01 0.00 74 971.6
20260831170032 65 289 2.0 2.0 0.00 0.01 0.00 73 971.6
20260831165132 65 239 3.0 6.0 0.00 0.01 0.00 73 971.6
20260831164232 65 231 4.0 6.0 0.00 0.01 0.00 72 971.5
20260831163332 65 212 3.0 5.0 0.00 0.01 0.00 72 971.4
20260831161532 66 250 4.0 6.0 0.00 0.01 0.00 70 971.3
20260831160632 66 258 5.0 6.0 0.00 0.01 0.00 69 971.4
20260831155732 67 243 4.0 6.0 0.00 0.01 0.00 69 971.3
20260831154832 68 219 4.0 7.0 0.00 0.01 0.00 67 971.2
20260831153932 68 228 4.0 5.0 0.00 0.01 0.00 67 971.1
20260831153032 68 208 4.0 7.0 0.00 0.01 0.00 66 971.1
20260831152132 68 231 4.0 7.0 0.00 0.01 0.00 65 971.0
20260831151232 67 269 5.0 7.0 0.00 0.01 0.00 68 971.2
20260831150332 66 256 5.0 6.0 0.00 0.01 0.00 70 971.0
20260831145432 66 238 5.0 7.0 0.00 0.01 0.00 70 971.1
20260831144532 66 240 5.0 8.0 0.00 0.01 0.00 69 971.0
20260831143632 67 232 6.0 10.0 0.00 0.01 0.00 68 971.0
20260831141832 69 256 5.0 8.0 0.00 0.02 0.00 62 970.9
20260831140032 72 262 2.0 5.0 0.00 0.02 0.00 62 970.9
20260831135132 69 227 2.0 4.0 0.00 0.02 0.00 67 970.9
20260831134232 67 199 3.0 4.0 0.00 0.02 0.00 68 971.0
20260831133332 67 278 4.0 6.0 0.00 0.02 0.00 68 971.0
20260831132432 66 296 4.0 5.0 0.00 0.02 0.00 68 971.0
20260831125732 68 190 8.0 14.0 0.00 0.02 0.00 65 970.6
20260831124832 68 186 10.0 14.0 0.00 0.02 0.00 66 970.6
20260831123933 69 190 8.0 14.0 0.00 0.02 0.00 66 970.5
20260831122132 68 195 6.0 10.0 0.00 0.02 0.00 66 970.8
20260831121233 67 190 7.0 8.0 0.00 0.02 0.00 70 970.6
20260831120332 67 203 8.0 11.0 0.00 0.02 0.00 68 970.7
20260831113632 68 202 9.0 12.0 0.00 0.02 0.00 69 970.7
20260831112732 67 206 8.0 12.0 0.00 0.02 0.00 69 970.7
20260831110933 67 183 8.0 10.0 0.00 0.02 0.00 71 970.9
20260831110032 67 201 9.0 12.0 0.00 0.02 0.00 70 970.7
20260831104232 65 211 6.0 8.0 0.00 0.02 0.00 75 970.6
20260831103332 64 221 5.0 7.0 0.00 0.02 0.00 77 970.7
20260831102432 63 186 7.0 11.0 0.00 0.02 0.00 78 970.7
20260831101532 63 222 7.0 10.0 0.00 0.02 0.00 78 970.9
20260831094832 63 204 8.0 10.0 0.00 0.02 0.00 82 970.8
20260831093932 61 198 6.0 10.0 0.00 0.02 0.00 85 971.0
20260831093032 60 208 5.0 10.0 0.00 0.02 0.00 86 970.9
20260831092132 60 217 6.0 10.0 0.00 0.02 0.00 86 970.8
20260831091233 61 236 6.0 8.0 0.00 0.02 0.00 83 970.9
20260831090332 62 237 6.0 8.0 0.00 0.02 0.00 81 970.7
20260831085432 62 224 7.0 11.0 0.00 0.02 0.00 80 970.8
20260831084532 62 210 5.0 9.0 0.00 0.02 0.00 80 970.7
20260831083632 62 225 5.0 9.0 0.00 0.02 0.00 81 970.8
20260831082733 61 237 7.0 9.0 0.00 0.02 0.00 82 970.7
20260831080933 61 197 6.0 11.0 0.00 0.02 0.00 81 970.6
20260831080032 61 219 6.0 8.0 0.00 0.02 0.00 82 970.5
20260831074233 62 235 5.0 8.0 0.00 0.02 0.00 81 970.5
20260831073332 62 190 5.0 8.0 0.00 0.02 0.00 81 970.4
20260831072432 62 215 6.0 9.0 0.00 0.02 0.00 82 970.3
20260831071532 62 220 6.0 9.0 0.00 0.02 0.00 82 970.4
20260831070632 63 185 6.0 7.0 0.00 0.02 0.00 79 970.4
20260831064832 65 240 6.0 8.0 0.00 0.02 0.00 77 970.3
20260831063933 64 203 4.0 6.0 0.00 0.02 0.00 82 970.3
20260831062132 60 222 3.0 5.0 0.00 0.02 0.00 86 970.4
20260831061232 60 210 2.0 4.0 0.00 0.02 0.00 87 970.4
20260831060332 60 240 3.0 4.0 0.00 0.02 0.00 86 970.2
20260831055433 61 242 3.0 5.0 0.00 0.02 0.00 86 970.0
20260831053632 61 203 1.0 2.0 0.00 0.02 0.00 90 970.1
20260831052733 60 179 2.0 4.0 0.00 0.02 0.00 93 970.1
20260831051832 58 193 2.0 3.0 0.00 0.02 0.00 93 969.9
20260831050032 57 181 1.0 2.0 0.00 0.02 0.00 93 970.1
20260831045132 57 201 1.0 2.0 0.00 0.02 0.00 93 970.1
20260831044233 57 201 2.0 3.0 0.00 0.02 0.00 93 970.0
20260831043332 57 181 2.0 3.0 0.00 0.02 0.00 93 969.9
20260831042432 56 176 2.0 2.0 0.00 0.02 0.00 93 970.0
20260831041532 56 173 2.0 3.0 0.00 0.02 0.00 93 969.9
20260831040632 56 181 2.0 2.0 0.00 0.02 0.00 93 969.8
20260831035732 56 178 2.0 3.0 0.00 0.02 0.00 93 969.9
20260831034832 56 187 2.0 3.0 0.00 0.02 0.00 93 969.9
20260831033933 56 184 2.0 3.0 0.00 0.02 0.00 93 969.9
20260831033033 56 182 2.0 3.0 0.00 0.02 0.00 93 969.8
20260831031233 56 149 1.0 3.0 0.00 0.02 0.00 92 970.0
20260831030332 56 43 0.0 1.0 0.00 0.02 0.00 92 969.9
20260831025433 56 15 0.0 1.0 0.00 0.02 0.00 92 969.9
20260831024532 56 225 0.0 1.0 0.00 0.02 0.00 92 969.9
20260831023633 56 190 1.0 2.0 0.00 0.02 0.00 92 969.8
20260831022732 56 176 2.0 2.0 0.00 0.02 0.00 92 969.8
20260831021832 56 168 2.0 2.0 0.00 0.02 0.00 92 969.9
20260831020933 56 181 2.0 2.0 0.00 0.02 0.00 92 969.8
20260831020033 56 182 2.0 2.0 0.00 0.02 0.00 92 969.9
20260831015132 56 218 2.0 2.0 0.00 0.02 0.00 92 970.0
20260831014233 56 254 2.0 3.0 0.00 0.02 0.00 92 970.0
20260831013332 56 217 2.0 3.0 0.00 0.02 0.00 92 969.9
20260831012432 56 176 2.0 3.0 0.00 0.02 0.00 92 969.6
20260831011532 56 136 3.0 4.0 0.00 0.02 0.00 91 969.8
20260831010633 56 61 4.0 5.0 0.00 0.02 0.00 91 969.7
20260831005733 56 85 4.0 5.0 0.00 0.02 0.00 91 969.6
20260831004832 57 58 2.0 3.0 0.00 0.02 0.00 91 969.7
20260831003932 57 338 2.0 4.0 0.00 0.02 0.00 91 969.9
20260831003032 58 201 1.0 2.0 0.00 0.04 0.00 91 970.1
20260831001232 58 183 2.0 2.0 0.00 0.08 0.00 91 970.2
20260831000333 58 181 2.0 2.0 0.00 0.08 0.00 90 970.3
20260830235433 58 195 1.0 2.0 0.00 0.08 0.00 90 970.2
20260830234532 58 188 2.0 2.0 0.00 0.08 0.00 90 970.3
20260830233632 58 176 2.0 2.0 0.00 0.14 0.00 90 970.2
20260830231833 58 190 1.0 2.0 0.00 0.14 0.00 89 970.2
20260830230934 58 144 1.0 2.0 0.00 0.17 0.00 89 970.2
20260830225132 58 175 3.0 3.0 0.00 0.17 0.00 89 970.1
20260830224232 58 176 2.0 2.0 0.00 0.17 0.00 89 970.1
20260830222433 58 170 2.0 3.0 0.00 0.19 0.00 88 970.1
20260830221533 58 172 2.0 3.0 0.00 0.19 0.00 88 969.9
20260830220632 58 178 2.0 3.0 0.00 0.19 0.00 88 970.0
20260830215732 58 181 3.0 3.0 0.00 0.19 0.19 88 970.1
20260830214833 58 182 3.0 4.0 0.00 0.19 0.19 88 969.9
20260830213932 58 173 2.0 3.0 0.00 0.19 0.19 87 969.9
20260830213033 58 137 2.0 2.0 0.00 0.19 0.19 87 969.9
20260830212133 58 135 1.0 2.0 0.00 0.19 0.19 87 970.0
20260830211232 58 135 0.0 1.0 0.00 0.19 0.19 87 969.9
20260830210332 58 135 0.0 1.0 0.00 0.19 0.19 87 969.9
20260830205434 58 135 1.0 2.0 0.01 0.19 0.19 87 969.9
20260830204532 58 135 1.0 2.0 0.01 0.19 0.19 87 969.9
20260830203633 58 135 1.0 2.0 0.01 0.19 0.19 87 969.8
20260830201833 59 121 1.0 2.0 0.01 0.19 0.19 86 969.9
20260830200933 59 181 2.0 2.0 0.01 0.19 0.19 86 969.8
20260830200032 59 171 1.0 3.0 0.01 0.19 0.19 86 969.8
20260830195133 59 185 1.0 2.0 0.00 0.18 0.18 85 969.7
20260830194233 59 175 2.0 3.0 0.00 0.18 0.18 85 969.9
20260830193333 60 193 3.0 4.0 0.00 0.18 0.18 84 969.9
20260830191533 60 183 3.0 4.0 0.00 0.18 0.18 83 969.8
20260830190632 60 184 2.0 2.0 0.00 0.18 0.18 83 969.7
20260830185733 60 181 3.0 4.0 0.00 0.18 0.18 83 969.9
20260830184833 60 176 3.0 4.0 0.00 0.18 0.18 83 969.9
20260830183933 60 191 4.0 6.0 0.00 0.18 0.18 83 969.8
20260830183033 60 194 4.0 6.0 0.00 0.18 0.18 82 969.8
20260830181233 61 167 4.0 5.0 0.00 0.18 0.18 83 969.7
20260830180333 61 153 3.0 3.0 0.00 0.18 0.18 83 969.7
20260830175433 61 160 2.0 3.0 0.00 0.18 0.18 83 969.6